Location: Unspecified
(47.5840°N, 122.3000°W)
Time: 14:37:36
(UTC+00:00)

IRIDIUM 114 - Pass Details

Date: 19 March 2026
Orbit: 776 x 779 km, 86.4° (Epoch: 18 April)

Event Time Altitude Azimuth Distance (km) Brightness Sun altitude
Exits shadow 03:41:54 19° 81° (E) 1,782 5.7 -14.6°
Maximum altitude 03:42:09 19° 78° (ENE) 1,779 5.7 -14.6°
Drops below altitude 10° 03:45:46 10° 34° (NNE) 2,341 6.6 -15.2°
Sets 03:48:43 0° 17° (NNE) 3,274 7.6 -15.7°
